Location: Bohy
(49.9380°N, 13.5753°E)
Time: 18:08:03
(UTC+00:00)

Daily predictions for brighter satellites

Satellite Brightness Start Highest point End
(mag) Time Altitude Azimuth Time Altitude Azimuth Time Altitude Azimuth
Cosmos 1125 Rocket 4.2 19:23:09 10° NNW 19:28:15 44° ENE 19:33:18 10° SE
CZ-4B R/B 3.7 19:24:12 10° S 19:29:40 62° WSW 19:35:03 10° NNW
BlueWalker 3 2.0 19:28:10 10° WNW 19:31:48 70° NNE 19:35:26 10° ESE
SWAS 4.4 19:31:58 10° SSW 19:36:03 86° WNW 19:40:10 10° NNE
Cosmos 1400 Rocket 2.7 19:32:27 10° S 19:36:03 56° E 19:39:40 10° NNE
Cosmos 1346 Rocket 3.3 19:32:43 10° N 19:36:14 39° ENE 19:39:43 10° SE
CZ-4C R/B 3.4 19:30:42 10° NW 19:37:40 63° SW 19:46:10 10° SSE
CZ-4B R/B 4.2 19:35:28 10° S 19:40:07 52° W 19:44:54 10° NNW
Cosmos 1953 Rocket 3.7 19:36:38 10° NNW 19:41:08 81° W 19:45:34 10° S
Ariane Rocket 3.9 19:37:18 10° SE 19:41:54 36° ENE 19:46:30 10° N
Cosmos 1697 Rocket 3.1 19:36:21 10° NNW 19:41:56 56° NE 19:47:30 10° SE
Cosmos 44 3.5 19:37:42 10° NNW 19:42:09 56° NE 19:46:49 10° SE
Meteor 1-25 Rocket 4.4 19:42:14 10° NNW 19:47:47 73° W 19:53:17 10° S
Cosmos 2074 Rocket 4.4 19:42:04 10° NNW 19:48:14 66° W 19:54:21 10° S
Lacrosse 5 rocket 0.9 19:45:46 10° WNW 19:49:21 90° E 19:52:35 12° SE
SPOT 5 3.8 19:47:59 10° S 19:52:05 40° W 19:56:10 10° NNW
Cosmos 1814 Rocket 4.0 19:47:40 10° SSW 19:52:48 88° WNW 19:58:01 10° NNE
Cosmos 1867 3.8 19:50:12 10° NW 19:55:40 66° NE 20:00:45 12° SE
Alouette 2 Rocket 4.5 19:52:43 10° NNW 19:56:10 42° W 20:00:20 10° S
Cosmos-2242 3.2 19:52:15 10° S 19:56:23 52° E 20:00:33 10° NNE
Nadezhda 1 Rocket 4.0 19:50:31 10° S 19:56:36 82° E 20:02:48 10° N
Cosmos 1656 4.4 19:52:16 10° NW 19:57:43 51° WSW 20:03:04 10° S
Cosmos 2154 Rocket 4.4 19:52:00 10° NNW 19:58:08 66° W 20:04:16 10° S
Cosmos 2341 Rocket 4.3 19:54:32 10° N 20:00:41 54° ENE 20:06:24 12° SSE
SeaSat 1 3.5 19:57:14 10° ESE 20:01:39 35° NE 20:06:05 10° NNW
Cosmos 2082 Rocket 3.8 20:00:20 11° SE 20:02:55 15° E 20:06:02 10° ENE
Okean O Rocket 2.6 19:59:11 10° S 20:03:21 44° W 20:07:31 10° NNW
Cosmos 1933 3.5 19:59:35 10° SSW 20:03:26 71° W 20:07:19 10° N
Cosmos 2221 4.0 20:01:07 12° SE 20:03:33 19° E 20:06:33 10° NE
Iridium 4 Rocket 3.9 20:00:41 10° N 20:05:43 68° W 20:11:10 10° S
SPOT 3 Rocket 3.7 20:02:59 12° SSE 20:07:42 61° ENE 20:12:46 10° N
Okean-O 3.3 20:04:33 10° S 20:08:50 53° W 20:13:09 10° NNW
ERS-1 Rocket 3.6 20:05:59 10° S 20:10:54 55° W 20:15:51 10° NNW
Cosmos 1743 3.6 20:14:21 10° NNW 20:17:34 39° W 20:20:46 10° SSW
ISS -3.8 20:17:08 10° WNW 20:20:31 86° NNE 20:23:18 14° ESE
Cosmos 2084 Rocket 3.9 20:18:23 10° S 20:22:19 37° SE 20:26:14 10° ENE
Spot 2 Rocket 3.7 20:17:40 10° S 20:22:38 70° WSW 20:27:41 10° NNW
BREEZE-M R/B 4.2 20:02:20 10° W 20:22:54 82° S 20:27:29 10° ESE
NOSS 3-1 (C) 3.1 20:19:35 10° SSW 20:24:12 55° SE 20:29:48 10° NE
ARIANE 6 FM1 Upper Stage 2.7 20:20:14 10° SW 20:24:15 81° NW 20:28:19 10° NE
Cosmos 2333 Rocket 4.5 20:23:23 10° N 20:27:02 17° NNE 20:30:40 10° ENE
Cosmos 1833 Rocket 2.7 20:24:44 10° SSW 20:30:23 86° ESE 20:36:05 10° NNE
Cosmos 1356 Rocket 3.5 20:28:39 15° S 20:31:55 57° E 20:35:57 10° NNE
Cosmos 1733 3.1 20:30:53 10° NNW 20:33:56 55° W 20:36:07 17° S
Cosmos 1821 Rocket 4.2 20:30:06 10° N 20:36:06 54° ENE 20:40:28 19° SSE
USA 245 4.5 20:35:19 12° S 20:39:07 49° W 20:44:06 10° NNW
Cosmos 158 Rocket 4.4 20:33:59 10° SSW 20:39:16 67° WNW 20:44:39 10° NNE
Cosmos 2218 Rocket 4.0 20:34:30 10° N 20:40:55 85° E 20:46:01 17° S
Cosmos 1805 3.5 20:45:55 10° N 20:49:16 44° ENE 20:50:42 27° SE
SWARM A 4.2 20:48:26 23° S 20:50:24 88° E 20:53:48 10° N
PSLV R/B 4.2 20:49:41 18° SSW 20:51:43 42° W 20:54:50 10° NNW
Cosmos 1812 Rocket 3.4 20:48:57 17° S 20:52:10 80° E 20:56:30 10° NNE
Cosmos 1980 Rocket 2.2 20:48:08 10° NNW 20:53:47 86° ENE 20:57:27 23° SSE
NOSS 3-1 (A) 3.4 20:50:27 16° S 20:53:54 41° ESE 20:59:11 10° NE
Terra 3.6 20:51:20 10° SSW 20:55:12 25° W 20:59:05 10° NW
USA 234 3.3 20:49:24 10° ENE 20:55:59 90° SSE 21:02:33 10° WSW
ATLAS CENTAUR R/B 2.4 20:52:36 10° WSW 20:56:10 43° NW 20:59:51 10° NNE
Cosmos 1315 Rocket 2.6 20:55:12 22° S 20:57:37 75° E 21:01:31 10° NNE
BREEZE-M DEB (TANK) 4.2 20:41:08 10° W 21:00:24 88° S 21:05:11 10° E
Cosmos 2208 Rocket 4.0 20:55:33 10° SSW 21:00:56 85° ESE 21:06:18 10° NNE
Cosmos 2181 Rocket 4.0 20:58:42 15° S 21:04:05 85° E 21:10:30 10° N
SL-16 R/B 3.5 20:59:41 10° NNW 21:04:47 33° NE 21:09:15 13° ESE
DELTA 2 DEB (DPAF) 3.9 21:03:19 10° NNE 21:07:14 60° ESE 21:09:02 29° S
Meteor 1-11 Rocket 4.0 21:02:21 10° N 21:07:47 55° ENE 21:10:57 24° SE
BlueWalker 3 2.7 21:06:04 10° WNW 21:09:22 33° SW 21:10:12 29° S
SL-24 R/B 4.1 21:05:16 10° NNE 21:09:35 88° WNW 21:12:49 19° SSW
Meteor 2-10 4.5 21:04:27 10° NNW 21:10:06 65° W 21:13:58 20° S
Cosmos 2322 Rocket 3.9 21:08:51 10° NNW 21:13:35 26° NE 21:18:16 10° E
Cosmos 1975 4.1 21:11:15 10° NNE 21:14:24 26° ENE 21:15:35 21° ESE
CZ-4C R/B 3.6 21:15:29 10° NNE 21:18:58 42° E 21:19:42 36° SE
Meteor 1-14 Rocket 4.3 21:14:40 10° NNW 21:20:16 73° W 21:23:50 24° S
Ariane Rocket 4.1 21:16:59 15° SSW 21:20:46 37° W 21:25:28 10° NNW
Cosmos 1238 Rocket 3.1 21:22:12 21° SSW 21:24:24 51° WNW 21:27:38 10° N
Cosmos 2298 Rocket 4.5 21:19:48 10° NNW 21:25:00 53° WSW 21:27:57 25° S
Cosmos 1697 Rocket 4.1 21:20:47 10° NW 21:25:35 29° WSW 21:29:17 15° SSW
Nadezhda 3 Rocket 4.0 21:21:58 25° S 21:25:42 65° E 21:31:53 10° NNE
ARIANE 5 R/B 3.3 21:23:51 27° ESE 21:25:45 43° ENE 21:29:53 10° N
Lacrosse 5 rocket 3.0 21:24:12 10° W 21:26:15 15° SW 21:26:34 15° SW
Cosmos 1842 Rocket 4.2 21:25:47 31° SE 21:27:03 38° E 21:31:04 10° NNE
Cosmos 1766 3.9 21:27:39 10° N 21:30:51 34° ENE 21:31:35 30° ESE
Cosmos 2278 4.4 21:25:42 10° NNW 21:31:09 46° NE 21:34:47 20° ESE
Cosmos 1934 Rocket 4.3 21:25:54 10° N 21:32:04 58° ENE 21:35:32 27° SE
Cosmos 1470 4.4 21:29:47 10° NNE 21:32:24 19° ENE 21:33:25 17° E
CENTAUR R/B 4.0 21:25:28 10° NW 21:32:54 47° NNE 21:41:36 10° ESE
Cosmos 1908 4.4 21:30:17 10° NNE 21:32:56 22° ENE 21:33:32 21° E
Cosmos 2360 Rocket 3.7 21:28:30 10° NNW 21:33:22 29° NE 21:38:04 11° ESE
ATLAS 3B R/B 3.5 21:30:06 25° SSE 21:33:24 36° ESE 21:40:19 10° NE
Cosmos 1536 3.3 21:32:21 10° NNW 21:36:04 50° W 21:37:32 31° SSW
Cosmos 2369 3.8 21:33:01 10° NNW 21:38:41 71° WSW 21:41:29 30° S
SeaSat 1 3.0 21:36:40 27° S 21:38:56 46° WSW 21:43:40 10° NW
Cosmos 2221 3.3 21:37:29 18° SW 21:40:21 45° WNW 21:44:23 10° N
Cosmos 405 Rocket 2.4 21:37:36 10° N 21:41:01 70° ENE 21:41:40 53° SE
CZ-2C R/B 3.9 21:38:09 10° NNE 21:42:26 48° E 21:43:42 37° SSE
Okean 1 4.4 21:42:37 18° SW 21:44:55 35° WNW 21:48:20 10° N
Cosmos 2082 Rocket 2.1 21:42:05 20° SSW 21:46:06 85° ESE 21:51:46 10° NNE
Cosmos 1674 3.0 21:48:35 31° NW 21:48:35 31° NW 21:50:18 10° N
Timation 1 Rocket 4.3 21:47:15 24° SSW 21:50:57 72° ESE 21:56:56 10° NE
ISS -2.2 21:54:08 10° W 21:56:13 24° WSW 21:56:13 24° WSW
Okean 3 Rocket 3.5 21:53:16 10° N 21:57:42 83° E 21:59:09 42° SSE
COBE Rocket 4.2 21:52:47 10° N 21:57:52 69° WNW 22:00:56 24° SSW
Meteor 1-10 Rocket 4.4 21:54:20 24° SSW 21:58:06 75° WNW 22:03:58 10° N
Landsat 5 3.7 21:55:07 10° NNE 21:59:12 52° E 22:00:10 42° SE
Cosmos 1766 Rocket 4.3 21:56:17 10° NNW 22:00:28 45° W 22:02:12 29° SW
COSMOS 2406 3.1 21:59:10 28° SSW 22:02:13 74° ESE 22:07:56 10° NNE
Cosmos 1842 3.9 22:02:54 33° E 22:02:58 33° E 22:06:07 10° NNE
USA 59 Rocket -0.9 22:10:24 76° E 22:10:24 76° E 22:13:14 10° NE
Cosmos 2333 Rocket 2.6 22:06:57 10° NNW 22:12:38 57° NE 22:15:53 25° SE
MetOp-A 4.2 22:10:43 35° S 22:12:47 65° WSW 22:17:58 10° NNW
Cosmos 1300 4.0 22:14:57 10° NNE 22:17:28 21° ENE 22:17:48 21° E
Cosmos 1151 Rocket 3.6 22:19:28 37° ESE 22:20:15 42° E 22:24:15 10° NNE
ALOS 2 2.6 22:19:44 45° SSE 22:21:03 79° ENE 22:25:28 10° NNW
NOSS 2-1 (E) 2.6 22:21:20 84° SSE 22:21:22 85° SE 22:24:25 10° NE
Meteor 2-13 Rocket 4.5 22:19:06 29° SSW 22:22:25 78° W 22:28:35 10° N
Cosmos 2219 Rocket 3.3 22:23:09 10° NNW 22:28:26 39° NE 22:32:40 15° ESE
ATLAS CENTAUR R/B 4.5 22:31:18 10° NW 22:33:15 13° NNW 22:35:12 10° N
Meteor 2-4 Rocket 3.7 22:30:52 36° S 22:33:17 84° E 22:39:09 10° NNE
Meteor 1-27 Rocket 4.0 22:30:55 27° SW 22:33:56 60° WNW 22:39:25 10° N
NOSS 2-1 (D) 3.2 22:36:14 44° W 22:36:55 57° NW 22:39:53 10° NE
Cosmos 1980 Rocket 4.0 22:33:28 10° WNW 22:37:01 17° W 22:39:12 14° SW
Sich 1 3.0 22:33:14 10° NNW 22:37:27 65° W 22:38:23 49° SSW
USA 234 4.1 22:32:28 10° ENE 22:38:46 53° NNW 22:45:04 10° W
Cosmos 1680 Rocket 4.4 22:39:24 30° SE 22:40:40 34° ESE 22:45:20 10° NE
Genesis I 4.1 22:38:57 10° NW 22:40:24 25° WNW 22:40:24 25° WNW
NOSS 3-1 (A) 4.2 22:39:44 10° WSW 22:44:35 46° NNW 22:50:34 10° NE
PSLV R/B 3.5 22:41:53 10° NNE 22:46:04 68° ESE 22:46:52 53° SSE
Cosmos 2056 Rocket 4.1 22:42:54 10° NNW 22:48:09 53° ENE 22:50:55 26° SE
SL-16 R/B 2.4 22:43:38 10° NW 22:49:10 55° WSW 22:51:04 38° SSW
Cosmos 1975 4.0 22:46:34 10° NNW 22:49:41 26° W 22:50:13 25° WSW
Cosmos 1707 2.6 22:51:13 54° W 22:51:27 56° WNW 22:54:46 10° N
Cosmos 1624 Rocket 4.5 22:47:03 10° NNW 22:52:10 55° ENE 22:54:51 27° SE
H-2A R/B 4.2 22:50:24 17° ESE 22:52:17 24° ENE 22:55:24 10° N
Cosmos 1500 Rocket 3.8 22:48:16 10° NNW 22:52:33 56° W 22:53:33 44° SW
Cosmos 1538 Rocket 4.1 22:50:41 32° SW 22:53:04 71° WNW 22:58:14 10° NNE
NOSS 2-1 (C) 4.0 22:55:40 27° W 22:56:52 38° NW 22:59:43 10° NNE
Cosmos 2322 Rocket 2.1 22:52:33 10° NNW 22:58:13 75° WSW 23:00:24 39° SSE
Cosmos 1633 Rocket 3.7 22:55:10 10° N 22:59:22 45° ENE 23:00:47 33° ESE
Cosmos 1408 Rocket 4.4 22:57:21 10° NNW 23:01:22 37° W 23:02:20 33° WSW
ARIANE 5 R/B 4.1 23:01:14 21° WSW 23:02:16 23° W 23:05:47 10° NW
COSMOS 2428 4.2 22:58:22 10° NNW 23:03:31 33° NE 23:08:39 10° ESE
Cosmos 1459 Rocket 4.3 22:57:47 10° N 23:03:49 57° ENE 23:07:06 27° SE
Cosmos 1908 4.5 23:03:51 10° NW 23:06:26 23° W 23:06:26 23° W
Cosmos 1470 3.5 23:03:53 10° NNW 23:07:08 34° W 23:07:19 34° W
Cosmos 1066 Rocket 4.2 23:04:56 37° SSW 23:07:15 83° WNW 23:13:03 10° N
Meteor 2-10 Rocket 4.0 23:02:36 10° N 23:08:19 65° ENE 23:11:09 31° SSE
Cosmos 1805 Rocket 4.3 23:04:25 10° NNW 23:08:35 41° W 23:09:35 35° SW
GP-B 3.1 23:11:02 10° N 23:15:25 72° W 23:16:31 48° SSW
Exosat Rocket 4.1 23:12:24 10° NW 23:17:09 42° WSW 23:18:24 36° SW
Meteor 1-18 Rocket 4.4 23:14:33 33° SSW 23:17:11 68° WNW 23:23:04 10° N
Cosmos 2360 Rocket 2.2 23:12:14 10° NW 23:17:47 64° WSW 23:19:47 39° S
Cosmos 2173 Rocket 4.1 23:12:13 10° N 23:18:37 76° E 23:21:47 31° SSE
Cosmos 1758 4.0 23:19:25 10° N 23:23:05 42° ENE 23:24:09 34° ESE
ATLAS 3B R/B 3.2 23:17:16 15° SW 23:23:45 72° NW 23:31:39 10° NE
Cosmos 1328 Rocket 3.6 23:23:10 48° SSE 23:24:10 66° E 23:28:28 10° NNE
CENTAUR R/B 3.2 23:16:05 10° NW 23:24:17 76° SW 23:31:24 19° SSE
ASTEX 1 3.4 23:19:26 10° N 23:24:23 74° W 23:26:06 41° SSW
USA 229 DEB 3.5 23:20:46 27° SW 23:24:25 86° NW 23:31:18 10° NE
USA 229 3.5 23:20:54 27° SW 23:24:30 87° NW 23:31:23 10° NE
GEOS 3 Rocket 3.9 23:21:49 12° ESE 23:26:30 64° NE 23:31:36 10° NW
Cosmos 1743 Rocket 4.4 23:22:43 10° NNW 23:26:48 36° W 23:27:46 32° WSW
CZ-2C R/B 4.3 23:24:55 10° NNE 23:30:13 36° E 23:32:57 23° SE
Cosmos 2082 Rocket 4.2 23:26:27 10° W 23:30:55 24° NW 23:35:24 10° NNE
In-Cosmos 22 4.2 23:31:00 37° S 23:33:23 77° E 23:39:10 10° NNE
Cosmos 2123 Rocket 4.3 23:30:43 30° SSE 23:33:48 60° E 23:40:02 10° NNE
Cosmos 2112 Rocket 3.9 23:41:11 39° SSW 23:43:14 89° ESE 23:48:30 10° NNE
Cosmos 1455 1.8 23:44:39 10° NNW 23:47:02 58° NW 23:47:02 58° NW
Cosmos 2237 Rocket 3.9 23:43:47 10° NNW 23:48:48 31° NE 23:53:47 10° ESE
Cosmos 1300 3.9 23:48:12 10° NW 23:50:26 22° W 23:50:26 22° W
SL-14 R/B 3.1 23:53:45 56° S 23:54:32 90° NW 23:58:26 10° N
